Regional Weather Roundup
Issued by NWS

Home | Current Version | Previous Version | Text Only | Print | Product List | Glossary On
Versions: 1 2 3 4 5 6 7 8 9 10 11 12 13 14 15 16 17 18 19 20 21 22 23 24 25 26 27 28 29 30 31 32 33 34 35 36 37 38 39 40 41 42 43 44 45 46 47 48 49 50
000
ASUS43 KBIS 031302
RWRND

NORTH DAKOTA REGIONAL WEATHER ROUNDUP
NATIONAL WEATHER SERVICE BISMARCK ND
800 AM CDT FRI JUL 03 2015

NOTE: "FAIR" INDICATES FEW OR NO CLOUDS BELOW 12,000 FEET WITH NO
SIGNIFICANT WEATHER AND/OR OBSTRUCTIONS TO VISIBILITY.


NDZ001>003-009>011-017-031400-
NORTHWEST NORTH DAKOTA

CITY           SKY/WX    TMP DP  RH WIND       PRES   REMARKS
WILLISTON      SUNNY     63  60  90 NE3       30.02S FOG
MINOT          CLOUDY    63  60  90 CALM      29.99S FOG
MINOT AFB      SUNNY     63  63 100 W2        29.98F FOG
$$

NDZ018>021-031>035-040>046-031400-
SOUTHWEST NORTH DAKOTA

CITY           SKY/WX    TMP DP  RH WIND       PRES   REMARKS
BISMARCK       CLOUDY    64  62  93 W5        30.02S FOG
DICKINSON      MOSUNNY   63  60  90 S7        30.03S FOG
GARRISON         N/A     62  60  93 CALM      30.01S
HETTINGER ARPT SUNNY     61  58  90 CALM      30.06F FOG
$$

NDZ004>008-012>016-024-026-027-054-031400-
NORTHEAST NORTH DAKOTA

CITY           SKY/WX    TMP DP  RH WIND       PRES   REMARKS
GRAND FORKS    FOG       66  64  93 W3        29.93R VSB 1
GRND FRKS AFB  SUNNY     67  64  91 W3        29.94S FOG
DEVILS LAKE      N/A     64  59  82 CALM      29.97R VSB 3/4
$$

NDZ022-023-025-028>030-036>039-047>053-031400-
SOUTHEAST NORTH DAKOTA

CITY           SKY/WX    TMP DP  RH WIND       PRES   REMARKS
FARGO          PTSUNNY   65  63  93 W3        29.94R FOG
JAMESTOWN      CLOUDY    67  64  90 NW3       29.96F FOG
$$




USA.gov is the U.S. government's official web portal to all federal, state and local government web resources and services.